Multibeam Report for KM1214


Ship Name: Kilo Moana
Chief Scientist: Alford, Matthew
University of Hawaii
Source Organization: Rolling Deck to Repository
Start Date: 2012-06-30
End Date: 2012-07-03


View ISO Metadata

Visit the full NCEI Bathymetry Viewer


Multibeam Bathymetry

Cruise Details

Project: The Hawaii Ocean Timeseries (HOT) Profiler
Instrument: Kongsberg EM122 and EM710

Data Quality

Number of Files: 52
Number of Records: 155544
BATHYMETRY DATA Quantity Percentage
Number of Beams 63539504 100%
Number of Good Beams 61632336 97.0%
Number of Zero Beams 0 0%
Number of Flagged Beams 1907168 3.0%

Navigation Totals

Total Time: 48.128 hours
Total Track Length: 683.0582 km
Average Speed: 14.193 km/hr (7.6636 knots)

Cruise Bounds

Northern Extent: 23.173603
Southern Extent: 21.18587
Western Extent: -158.3338
Eastern Extent: -157.55525

Limits

Minimum Sonar Depth 5.593 Maximum Sonar Depth 8.7227
Minimum Altitude 3.5695 Maximum Altitude 5564.1392
Minimum Depth 9.6064 Maximum Depth 6516.9478

File Information

Full Resolution Bathymetry as collected (raw): 51

Files File Size Description
0000_20120701_040955_KM122.all.mb58.gz 101.68MB Kongsberg multibeam vendor format
0001_20120701_050953_KM122.all.mb58.gz 68.39MB Kongsberg multibeam vendor format
0002_20120701_060953_KM122.all.mb58.gz 64.88MB Kongsberg multibeam vendor format
0003_20120701_070953_KM122.all.mb58.gz 129.58MB Kongsberg multibeam vendor format
0004_20120701_080958_KM122.all.mb58.gz 57.84MB Kongsberg multibeam vendor format
0005_20120701_091003_KM122.all.mb58.gz 47.50MB Kongsberg multibeam vendor format
0006_20120701_100959_KM122.all.mb58.gz 47.29MB Kongsberg multibeam vendor format
0007_20120701_111000_KM122.all.mb58.gz 47.51MB Kongsberg multibeam vendor format
0008_20120701_121009_KM122.all.mb58.gz 47.18MB Kongsberg multibeam vendor format
0009_20120701_130954_KM122.all.mb58.gz 46.81MB Kongsberg multibeam vendor format
0010_20120701_141012_KM122.all.mb58.gz 45.80MB Kongsberg multibeam vendor format
0011_20120701_151009_KM122.all.mb58.gz 47.36MB Kongsberg multibeam vendor format
0012_20120701_160955_KM122.all.mb58.gz 47.28MB Kongsberg multibeam vendor format
0013_20120701_170955_KM122.all.mb58.gz 47.44MB Kongsberg multibeam vendor format
0014_20120701_181002_KM122.all.mb58.gz 46.66MB Kongsberg multibeam vendor format
0015_20120701_191003_KM122.all.mb58.gz 46.81MB Kongsberg multibeam vendor format
0016_20120701_201005_KM122.all.mb58.gz 46.94MB Kongsberg multibeam vendor format
0017_20120701_211008_KM122.all.mb58.gz 46.90MB Kongsberg multibeam vendor format
0019_20120702_175721_KM122.all.mb58.gz 46.76MB Kongsberg multibeam vendor format
0020_20120702_185730_KM122.all.mb58.gz 21.44MB Kongsberg multibeam vendor format
0021_20120702_212612_KM122.all.mb58.gz 46.24MB Kongsberg multibeam vendor format
0022_20120702_222556_KM122.all.mb58.gz 46.27MB Kongsberg multibeam vendor format
0023_20120702_232605_KM122.all.mb58.gz 29.58MB Kongsberg multibeam vendor format
0024_20120703_045735_KM122.all.mb58.gz 47.78MB Kongsberg multibeam vendor format
0025_20120703_055731_KM122.all.mb58.gz 47.69MB Kongsberg multibeam vendor format
0026_20120703_065725_KM122.all.mb58.gz 47.30MB Kongsberg multibeam vendor format
0027_20120703_075724_KM122.all.mb58.gz 47.72MB Kongsberg multibeam vendor format
0028_20120703_085736_KM122.all.mb58.gz 46.95MB Kongsberg multibeam vendor format
0029_20120703_095724_KM122.all.mb58.gz 47.56MB Kongsberg multibeam vendor format
0030_20120703_105723_KM122.all.mb58.gz 47.43MB Kongsberg multibeam vendor format
0031_20120703_115728_KM122.all.mb58.gz 48.11MB Kongsberg multibeam vendor format
0032_20120703_125728_KM122.all.mb58.gz 47.67MB Kongsberg multibeam vendor format
0033_20120703_135719_KM122.all.mb58.gz 47.85MB Kongsberg multibeam vendor format
0034_20120703_145733_KM122.all.mb58.gz 47.75MB Kongsberg multibeam vendor format
0035_20120703_155735_KM122.all.mb58.gz 48.59MB Kongsberg multibeam vendor format
0036_20120703_165723_KM122.all.mb58.gz 52.81MB Kongsberg multibeam vendor format
0037_20120703_175722_KM122.all.mb58.gz 76.95MB Kongsberg multibeam vendor format
0038_20120703_185720_KM122.all.mb58.gz 162.98MB Kongsberg multibeam vendor format
0039_20120703_195720_KM122.all.mb58.gz 89.06MB Kongsberg multibeam vendor format
0040_20120703_205720_KM122.all.mb58.gz 89.86MB Kongsberg multibeam vendor format
0041_20120703_215721_KM122.all.mb58.gz 93.86MB Kongsberg multibeam vendor format
0042_20120703_225721_KM122.all.mb58.gz 51.71MB Kongsberg multibeam vendor format
0000_20120701_033218_KM710.all.mb58.gz 620.75MB Kongsberg multibeam vendor format
0001_20120701_043219_KM710.all.mb58.gz 75.24MB Kongsberg multibeam vendor format
0002_20120703_182814_KM710.all.mb58.gz 102.69MB Kongsberg multibeam vendor format
0003_20120703_192813_KM710.all.mb58.gz 193.68MB Kongsberg multibeam vendor format
0004_20120703_202815_KM710.all.mb58.gz 65.52MB Kongsberg multibeam vendor format
0005_20120703_212815_KM710.all.mb58.gz 65.97MB Kongsberg multibeam vendor format
0006_20120703_222815_KM710.all.mb58.gz 82.73MB Kongsberg multibeam vendor format
0007_20120703_232813_KM710.all.mb58.gz 460.16MB Kongsberg multibeam vendor format
0008_20120704_002813_KM710.all.mb58.gz 116.27MB Kongsberg multibeam vendor format

Metadata Files: 1

Files File Size Description
KM1214_Multibeam.xml NCEI created ISO metadata